| time (UTC) | temp F | wind direction | speed MPH | gust MPH | rain 1hr in | rain 24hr in | rain mn in | humidity % | barometer mb |
| 20260510180053 | 69 | 69 | 7.0 | 14.0 | 0.04 | 0.06 | 0.06 | 80 | 1016.0 |
| 20260510175536 | 68 | 47 | 7.0 | 19.0 | 0.06 | 0.06 | 0.06 | 82 | 1016.0 |
| 20260510175042 | 68 | 55 | 13.0 | 19.0 | 0.06 | 0.06 | 0.06 | 82 | 1016.0 |
| 20260510174523 | 67 | 56 | 7.0 | 21.0 | 0.06 | 0.06 | 0.06 | 83 | 1016.0 |
| 20260510174029 | 67 | 68 | 13.0 | 21.0 | 0.06 | 0.06 | 0.06 | 82 | 1016.1 |
| 20260510173537 | 67 | 86 | 12.0 | 24.0 | 0.06 | 0.06 | 0.06 | 83 | 1016.0 |
| 20260510173041 | 67 | 45 | 17.0 | 24.0 | 0.06 | 0.06 | 0.06 | 84 | 1016.1 |
| 20260510172529 | 67 | 66 | 14.0 | 20.0 | 0.06 | 0.06 | 0.06 | 83 | 1016.1 |
| 20260510172031 | 66 | 73 | 14.0 | 20.0 | 0.06 | 0.06 | 0.06 | 83 | 1016.3 |
| 20260510171543 | 66 | 60 | 13.0 | 24.0 | 0.06 | 0.06 | 0.06 | 82 | 1016.2 |
| 20260510171024 | 66 | 68 | 8.0 | 26.0 | 0.06 | 0.06 | 0.06 | 80 | 1016.4 |
| 20260510170528 | 67 | 67 | 12.0 | 23.0 | 0.06 | 0.06 | 0.06 | 77 | 1016.2 |
| 20260510170037 | 68 | 68 | 11.0 | 27.0 | 0.02 | 0.02 | 0.02 | 74 | 1016.5 |
| 20260510165544 | 69 | 80 | 18.0 | 27.0 | 0.00 | 0.00 | 0.00 | 71 | 1016.2 |
| 20260510165028 | 70 | 52 | 13.0 | 21.0 | 0.00 | 0.00 | 0.00 | 69 | 1016.5 |
| 20260510164531 | 70 | 43 | 9.0 | 18.0 | 0.00 | 0.00 | 0.00 | 67 | 1016.7 |
| 20260510164055 | 72 | 39 | 7.0 | 20.0 | 0.00 | 0.00 | 0.00 | 64 | 1016.6 |
| 20260510163611 | 74 | 35 | 11.0 | 30.0 | 0.00 | 0.00 | 0.00 | 61 | 1016.4 |
| 20260510163053 | 77 | 21 | 15.0 | 30.0 | 0.00 | 0.00 | 0.00 | 57 | 1016.4 |
| 20260510162541 | 79 | 33 | 4.0 | 9.0 | 0.00 | 0.00 | 0.00 | 62 | 1016.0 |
| 20260510162027 | 79 | 117 | 0.0 | 9.0 | 0.00 | 0.00 | 0.00 | 62 | 1015.1 |
| 20260510161538 | 79 | 118 | 5.0 | 10.0 | 0.00 | 0.00 | 0.00 | 62 | 1014.8 |
| 20260510161037 | 79 | 185 | 6.0 | 13.0 | 0.00 | 0.00 | 0.00 | 62 | 1014.5 |
| 20260510160525 | 79 | 153 | 2.0 | 14.0 | 0.00 | 0.00 | 0.00 | 61 | 1014.4 |
| 20260510160033 | 79 | 183 | 7.0 | 14.0 | 0.00 | 0.00 | 0.00 | 61 | 1014.0 |
| 20260510155539 | 80 | 153 | 8.0 | 13.0 | 0.00 | 0.00 | 0.00 | 61 | 1013.8 |
| 20260510155023 | 79 | 162 | 6.0 | 12.0 | 0.00 | 0.00 | 0.00 | 61 | 1013.7 |
| 20260510154528 | 79 | 187 | 5.0 | 12.0 | 0.00 | 0.00 | 0.00 | 61 | 1013.6 |
| 20260510154030 | 79 | 153 | 7.0 | 13.0 | 0.00 | 0.00 | 0.00 | 61 | 1013.3 |
| 20260510153531 | 78 | 133 | 8.0 | 13.0 | 0.00 | 0.00 | 0.00 | 60 | 1013.2 |
| 20260510153042 | 78 | 114 | 8.0 | 14.0 | 0.00 | 0.00 | 0.00 | 60 | 1013.3 |
| 20260510152523 | 77 | 119 | 9.0 | 14.0 | 0.00 | 0.00 | 0.00 | 61 | 1013.3 |
| 20260510152032 | 77 | 133 | 8.0 | 14.0 | 0.00 | 0.00 | 0.00 | 60 | 1013.3 |
| 20260510151541 | 77 | 166 | 7.0 | 15.0 | 0.00 | 0.00 | 0.00 | 61 | 1013.1 |
| 20260510151029 | 76 | 166 | 7.0 | 17.0 | 0.00 | 0.00 | 0.00 | 61 | 1013.1 |
| 20260510150536 | 76 | 116 | 8.0 | 17.0 | 0.00 | 0.00 | 0.00 | 61 | 1013.1 |
| 20260510150022 | 75 | 133 | 7.0 | 12.0 | 0.00 | 0.00 | 0.00 | 61 | 1013.2 |
| 20260510145545 | 75 | 117 | 7.0 | 14.0 | 0.00 | 0.00 | 0.00 | 61 | 1013.1 |
| 20260510145031 | 74 | 97 | 9.0 | 16.0 | 0.00 | 0.00 | 0.00 | 61 | 1013.2 |
| 20260510144538 | 74 | 104 | 11.0 | 16.0 | 0.00 | 0.00 | 0.00 | 62 | 1013.2 |
| 20260510144023 | 74 | 124 | 11.0 | 15.0 | 0.00 | 0.00 | 0.00 | 62 | 1013.4 |
| 20260510143530 | 73 | 124 | 7.0 | 14.0 | 0.00 | 0.00 | 0.00 | 64 | 1013.5 |
| 20260510143107 | 73 | 99 | 5.0 | 13.0 | 0.00 | 0.00 | 0.00 | 66 | 1013.7 |
| 20260510142523 | 72 | 110 | 10.0 | 16.0 | 0.00 | 0.00 | 0.00 | 66 | 1013.7 |
| 20260510142028 | 72 | 116 | 9.0 | 17.0 | 0.00 | 0.00 | 0.00 | 67 | 1013.7 |
| 20260510141539 | 72 | 115 | 9.0 | 17.0 | 0.00 | 0.00 | 0.00 | 67 | 1013.9 |
| 20260510141028 | 72 | 120 | 6.0 | 14.0 | 0.00 | 0.00 | 0.00 | 68 | 1013.8 |
| 20260510140536 | 72 | 123 | 5.0 | 14.0 | 0.00 | 0.00 | 0.00 | 68 | 1013.9 |
| 20260510140022 | 71 | 122 | 3.0 | 14.0 | 0.00 | 0.00 | 0.00 | 68 | 1014.0 |
| 20260510135552 | 71 | 112 | 6.0 | 16.0 | 0.00 | 0.00 | 0.00 | 69 | 1014.0 |
| 20260510135031 | 71 | 105 | 9.0 | 16.0 | 0.00 | 0.00 | 0.00 | 69 | 1014.1 |
| 20260510134535 | 71 | 117 | 4.0 | 13.0 | 0.00 | 0.00 | 0.00 | 70 | 1014.1 |
| 20260510134043 | 70 | 104 | 4.0 | 11.0 | 0.00 | 0.00 | 0.00 | 70 | 1014.2 |
| 20260510133552 | 70 | 110 | 5.0 | 9.0 | 0.00 | 0.00 | 0.00 | 71 | 1014.2 |
| 20260510133039 | 70 | 110 | 1.0 | 11.0 | 0.00 | 0.00 | 0.00 | 71 | 1014.3 |
| 20260510132522 | 70 | 123 | 4.0 | 12.0 | 0.00 | 0.00 | 0.00 | 71 | 1014.3 |
| 20260510132032 | 70 | 115 | 5.0 | 12.0 | 0.00 | 0.00 | 0.00 | 71 | 1014.5 |
| 20260510131550 | 70 | 104 | 8.0 | 12.0 | 0.00 | 0.00 | 0.00 | 71 | 1014.5 |
| 20260510131038 | 70 | 110 | 4.0 | 15.0 | 0.00 | 0.00 | 0.00 | 71 | 1014.5 |
| 20260510130529 | 70 | 99 | 9.0 | 15.0 | 0.00 | 0.00 | 0.00 | 72 | 1014.2 |
| 20260510130041 | 70 | 85 | 8.0 | 12.0 | 0.00 | 0.00 | 0.00 | 72 | 1014.2 |
| 20260510125527 | 70 | 99 | 8.0 | 12.0 | 0.00 | 0.00 | 0.00 | 72 | 1014.0 |
| 20260510125031 | 70 | 120 | 7.0 | 14.0 | 0.00 | 0.00 | 0.00 | 72 | 1013.9 |
| 20260510124532 | 69 | 108 | 9.0 | 15.0 | 0.00 | 0.00 | 0.00 | 72 | 1013.8 |
| 20260510124041 | 69 | 97 | 7.0 | 15.0 | 0.00 | 0.00 | 0.00 | 72 | 1013.7 |
| 20260510123523 | 69 | 95 | 11.0 | 15.0 | 0.00 | 0.00 | 0.00 | 73 | 1013.5 |
| 20260510123033 | 69 | 108 | 10.0 | 15.0 | 0.00 | 0.00 | 0.00 | 73 | 1013.5 |
| 20260510122540 | 69 | 86 | 10.0 | 14.0 | 0.00 | 0.00 | 0.00 | 73 | 1013.5 |
| 20260510122023 | 69 | 105 | 10.0 | 14.0 | 0.00 | 0.00 | 0.00 | 74 | 1013.5 |
| 20260510121553 | 69 | 115 | 8.0 | 14.0 | 0.00 | 0.00 | 0.00 | 74 | 1013.5 |
| 20260510121038 | 69 | 99 | 9.0 | 14.0 | 0.00 | 0.00 | 0.00 | 75 | 1013.4 |
| 20260510120541 | 68 | 112 | 6.0 | 13.0 | 0.00 | 0.00 | 0.00 | 75 | 1013.4 |
| 20260510120029 | 68 | 101 | 6.0 | 13.0 | 0.00 | 0.00 | 0.00 | 75 | 1013.4 |
| 20260510115531 | 68 | 102 | 6.0 | 12.0 | 0.00 | 0.00 | 0.00 | 76 | 1013.4 |
| 20260510115040 | 68 | 104 | 5.0 | 12.0 | 0.00 | 0.00 | 0.00 | 76 | 1013.2 |
| 20260510114526 | 68 | 112 | 4.0 | 15.0 | 0.00 | 0.00 | 0.00 | 76 | 1013.0 |
| 20260510114033 | 68 | 118 | 4.0 | 15.0 | 0.00 | 0.00 | 0.00 | 76 | 1013.0 |
| 20260510113537 | 68 | 112 | 8.0 | 13.0 | 0.00 | 0.00 | 0.00 | 76 | 1013.1 |
| 20260510113040 | 68 | 108 | 9.0 | 13.0 | 0.00 | 0.00 | 0.00 | 76 | 1013.1 |
| 20260510112528 | 68 | 100 | 8.0 | 16.0 | 0.00 | 0.00 | 0.00 | 75 | 1013.1 |
| 20260510112033 | 68 | 106 | 10.0 | 16.0 | 0.00 | 0.00 | 0.00 | 75 | 1013.1 |
| 20260510111523 | 68 | 80 | 8.0 | 17.0 | 0.00 | 0.00 | 0.00 | 75 | 1013.1 |
| 20260510111037 | 68 | 96 | 11.0 | 17.0 | 0.00 | 0.00 | 0.00 | 75 | 1013.0 |
| 20260510110540 | 68 | 104 | 10.0 | 17.0 | 0.00 | 0.00 | 0.00 | 75 | 1013.0 |
| 20260510110109 | 68 | 93 | 12.0 | 17.0 | 0.00 | 0.00 | 0.00 | 75 | 1013.0 |
| 20260510105550 | 68 | 104 | 11.0 | 16.0 | 0.00 | 0.00 | 0.00 | 75 | 1013.1 |
| 20260510105032 | 69 | 76 | 9.0 | 16.0 | 0.00 | 0.00 | 0.00 | 74 | 1013.1 |
| 20260510104537 | 69 | 106 | 8.0 | 18.0 | 0.00 | 0.00 | 0.00 | 73 | 1012.9 |
| 20260510104025 | 69 | 87 | 10.0 | 18.0 | 0.00 | 0.00 | 0.00 | 72 | 1012.8 |
| 20260510103531 | 69 | 109 | 13.0 | 18.0 | 0.00 | 0.00 | 0.00 | 71 | 1012.9 |
| 20260510103037 | 69 | 68 | 12.0 | 19.0 | 0.00 | 0.00 | 0.00 | 70 | 1012.8 |
| 20260510102522 | 70 | 101 | 14.0 | 19.0 | 0.00 | 0.00 | 0.00 | 71 | 1012.8 |
| 20260510102026 | 70 | 76 | 6.0 | 26.0 | 0.00 | 0.00 | 0.00 | 70 | 1012.7 |
| 20260510101531 | 70 | 70 | 14.0 | 26.0 | 0.00 | 0.00 | 0.00 | 69 | 1012.8 |
| 20260510101038 | 70 | 92 | 14.0 | 23.0 | 0.00 | 0.00 | 0.00 | 69 | 1012.8 |
| 20260510100525 | 71 | 91 | 11.0 | 25.0 | 0.00 | 0.00 | 0.00 | 71 | 1012.8 |
| 20260510100038 | 71 | 83 | 15.0 | 25.0 | 0.00 | 0.00 | 0.00 | 72 | 1012.6 |
| 20260510095543 | 71 | 73 | 9.0 | 24.0 | 0.00 | 0.00 | 0.00 | 72 | 1012.6 |
| 20260510095043 | 71 | 66 | 15.0 | 24.0 | 0.00 | 0.00 | 0.00 | 72 | 1012.5 |
| 20260510094543 | 71 | 60 | 8.0 | 17.0 | 0.00 | 0.00 | 0.00 | 72 | 1012.6 |
| 20260510094052 | 71 | 62 | 10.0 | 18.0 | 0.00 | 0.00 | 0.00 | 73 | 1012.4 |
| 20260510093538 | 71 | 63 | 10.0 | 18.0 | 0.00 | 0.00 | 0.00 | 73 | 1012.5 |
| 20260510093027 | 71 | 56 | 8.0 | 22.0 | 0.00 | 0.00 | 0.00 | 73 | 1012.3 |
| 20260510092533 | 72 | 95 | 13.0 | 22.0 | 0.00 | 0.00 | 0.00 | 74 | 1012.0 |
| 20260510092022 | 72 | 99 | 11.0 | 21.0 | 0.00 | 0.00 | 0.00 | 74 | 1012.0 |
| 20260510091524 | 72 | 73 | 13.0 | 22.0 | 0.00 | 0.00 | 0.00 | 75 | 1011.9 |
| 20260510091036 | 73 | 71 | 15.0 | 22.0 | 0.00 | 0.00 | 0.00 | 77 | 1011.6 |
| 20260510090541 | 73 | 83 | 11.0 | 19.0 | 0.00 | 0.00 | 0.00 | 78 | 1011.6 |
| 20260510090021 | 74 | 54 | 10.0 | 18.0 | 0.00 | 0.00 | 0.00 | 79 | 1011.6 |
| 20260510085554 | 74 | 69 | 9.0 | 18.0 | 0.00 | 0.00 | 0.00 | 79 | 1011.5 |
| 20260510085040 | 74 | 47 | 12.0 | 17.0 | 0.00 | 0.00 | 0.00 | 79 | 1011.5 |
| 20260510084526 | 75 | 74 | 7.0 | 14.0 | 0.00 | 0.00 | 0.00 | 79 | 1011.4 |
| 20260510084029 | 75 | 69 | 8.0 | 14.0 | 0.00 | 0.00 | 0.00 | 79 | 1011.4 |
| 20260510083601 | 75 | 50 | 7.0 | 13.0 | 0.00 | 0.00 | 0.00 | 78 | 1011.5 |
| 20260510083057 | 74 | 47 | 7.0 | 13.0 | 0.00 | 0.00 | 0.00 | 78 | 1011.5 |
| 20260510082538 | 74 | 43 | 4.0 | 9.0 | 0.00 | 0.00 | 0.00 | 77 | 1011.4 |
| 20260510082049 | 74 | 47 | 3.0 | 9.0 | 0.00 | 0.00 | 0.00 | 77 | 1011.4 |
| 20260510081552 | 74 | 36 | 4.0 | 11.0 | 0.00 | 0.00 | 0.00 | 76 | 1011.5 |
| 20260510081037 | 74 | 29 | 5.0 | 11.0 | 0.00 | 0.00 | 0.00 | 76 | 1011.6 |
| 20260510080526 | 74 | 37 | 4.0 | 10.0 | 0.00 | 0.00 | 0.00 | 76 | 1011.6 |
| 20260510080033 | 74 | 354 | 3.0 | 10.0 | 0.00 | 0.00 | 0.00 | 75 | 1011.4 |
| 20260510075537 | 74 | 107 | 0.0 | 0.0 | 0.00 | 0.00 | 0.00 | 75 | 1011.2 |
| 20260510075026 | 74 | 110 | 0.0 | 0.0 | 0.00 | 0.00 | 0.00 | 74 | 1010.8 |
| 20260510074537 | 75 | 111 | 0.0 | 0.0 | 0.00 | 0.00 | 0.00 | 74 | 1010.5 |
| 20260510074023 | 75 | 111 | 0.0 | 0.0 | 0.00 | 0.00 | 0.00 | 73 | 1010.3 |
| 20260510073533 | 75 | 111 | 0.0 | 0.0 | 0.00 | 0.00 | 0.00 | 73 | 1010.2 |
| 20260510073022 | 75 | 110 | 0.0 | 0.0 | 0.00 | 0.00 | 0.00 | 72 | 1010.1 |
| 20260510072529 | 75 | 110 | 0.0 | 7.0 | 0.00 | 0.00 | 0.00 | 72 | 1010.0 |
| 20260510072039 | 75 | 109 | 0.0 | 7.0 | 0.00 | 0.00 | 0.00 | 72 | 1010.0 |
| 20260510071524 | 75 | 111 | 5.0 | 6.0 | 0.00 | 0.00 | 0.00 | 71 | 1009.8 |
| 20260510071054 | 76 | 112 | 2.0 | 9.0 | 0.00 | 0.00 | 0.00 | 70 | 1009.6 |
| 20260510070526 | 76 | 99 | 5.0 | 9.0 | 0.00 | 0.00 | 0.00 | 70 | 1009.6 |
| 20260510070029 | 76 | 113 | 5.0 | 9.0 | 0.00 | 0.00 | 0.00 | 69 | 1009.6 |
| 20260510065533 | 76 | 118 | 5.0 | 9.0 | 0.00 | 0.00 | 0.00 | 68 | 1009.6 |
| 20260510065038 | 77 | 119 | 4.0 | 11.0 | 0.00 | 0.00 | 0.00 | 68 | 1009.6 |
| 20260510064523 | 77 | 130 | 6.0 | 12.0 | 0.00 | 0.00 | 0.00 | 67 | 1009.8 |
| 20260510064100 | 77 | 119 | 6.0 | 12.0 | 0.00 | 0.00 | 0.00 | 68 | 1009.8 |
| 20260510063543 | 76 | 92 | 4.0 | 11.0 | 0.00 | 0.00 | 0.00 | 68 | 1009.7 |
| 20260510063046 | 76 | 131 | 6.0 | 11.0 | 0.00 | 0.00 | 0.00 | 69 | 1010.4 |
| 20260510062531 | 76 | 144 | 4.0 | 12.0 | 0.00 | 0.00 | 0.00 | 69 | 1010.7 |
| 20260510062037 | 76 | 76 | 4.0 | 13.0 | 0.00 | 0.00 | 0.00 | 69 | 1010.9 |
| 20260510061522 | 76 | 55 | 4.0 | 17.0 | 0.00 | 0.00 | 0.00 | 69 | 1011.2 |
| 20260510061029 | 76 | 37 | 12.0 | 17.0 | 0.00 | 0.00 | 0.00 | 68 | 1011.6 |
| 20260510060532 | 76 | 53 | 9.0 | 15.0 | 0.00 | 0.00 | 0.00 | 67 | 1011.5 |
| 20260510060039 | 76 | 45 | 5.0 | 13.0 | 0.00 | 0.00 | 0.00 | 66 | 1011.4 |
| 20260510055521 | 77 | 326 | 5.0 | 16.0 | 0.00 | 0.00 | 0.00 | 66 | 1011.2 |
| 20260510055027 | 77 | 2 | 5.0 | 11.0 | 0.00 | 0.00 | 0.00 | 66 | 1010.6 |
| 20260510054532 | 77 | 115 | 3.0 | 7.0 | 0.00 | 0.00 | 0.00 | 65 | 1009.5 |
| 20260510054038 | 77 | 126 | 2.0 | 10.0 | 0.00 | 0.00 | 0.00 | 65 | 1008.9 |
| 20260510053526 | 77 | 118 | 3.0 | 10.0 | 0.00 | 0.00 | 0.00 | 65 | 1008.8 |
| 20260510053032 | 77 | 120 | 2.0 | 10.0 | 0.00 | 0.00 | 0.00 | 65 | 1008.8 |
| 20260510052536 | 77 | 114 | 1.0 | 10.0 | 0.00 | 0.00 | 0.00 | 64 | 1008.8 |
| 20260510052044 | 77 | 110 | 1.0 | 10.0 | 0.00 | 0.00 | 0.00 | 64 | 1008.8 |
| 20260510051603 | 77 | 113 | 4.0 | 9.0 | 0.00 | 0.00 | 0.00 | 64 | 1008.6 |
| 20260510051025 | 77 | 115 | 5.0 | 9.0 | 0.00 | 0.00 | 0.00 | 63 | 1008.6 |
| 20260510050532 | 78 | 116 | 2.0 | 11.0 | 0.00 | 0.00 | 0.00 | 63 | 1008.6 |
| 20260510050043 | 78 | 121 | 1.0 | 11.0 | 0.00 | 0.00 | 0.00 | 63 | 1008.6 |
| 20260510045529 | 78 | 120 | 4.0 | 12.0 | 0.00 | 0.00 | 0.00 | 62 | 1008.3 |
| 20260510045035 | 78 | 127 | 2.0 | 12.0 | 0.00 | 0.00 | 0.00 | 62 | 1008.2 |
| 20260510044521 | 78 | 126 | 6.0 | 12.0 | 0.00 | 0.00 | 0.00 | 62 | 1008.0 |
| 20260510044028 | 78 | 124 | 6.0 | 12.0 | 0.00 | 0.00 | 0.00 | 61 | 1007.8 |
| 20260510043530 | 78 | 134 | 8.0 | 12.0 | 0.00 | 0.00 | 0.00 | 61 | 1007.8 |
| 20260510043036 | 78 | 129 | 7.0 | 11.0 | 0.00 | 0.00 | 0.00 | 61 | 1007.8 |
| 20260510042521 | 78 | 119 | 4.0 | 11.0 | 0.00 | 0.00 | 0.00 | 60 | 1008.0 |
| 20260510042032 | 78 | 118 | 6.0 | 11.0 | 0.00 | 0.00 | 0.00 | 60 | 1008.1 |
| 20260510041521 | 78 | 114 | 6.0 | 11.0 | 0.00 | 0.00 | 0.00 | 60 | 1008.2 |
| 20260510041026 | 78 | 115 | 1.0 | 10.0 | 0.00 | 0.00 | 0.00 | 60 | 1008.3 |
| 20260510040533 | 78 | 122 | 4.0 | 9.0 | 0.00 | 0.00 | 0.00 | 60 | 1008.2 |
| 20260510040055 | 78 | 110 | 2.0 | 9.0 | 0.00 | 0.00 | 0.00 | 60 | 1008.2 |
| 20260510035539 | 78 | 125 | 3.0 | 10.0 | 0.00 | 0.00 | 0.00 | 59 | 1008.3 |
| 20260510035023 | 78 | 118 | 5.0 | 10.0 | 0.00 | 0.00 | 0.00 | 59 | 1008.4 |
| 20260510034558 | 78 | 116 | 4.0 | 9.0 | 0.00 | 0.00 | 0.00 | 59 | 1008.3 |
| 20260510034043 | 78 | 124 | 1.0 | 6.0 | 0.00 | 0.00 | 0.00 | 59 | 1008.4 |
| 20260510033527 | 78 | 127 | 0.0 | 6.0 | 0.00 | 0.00 | 0.00 | 60 | 1008.4 |
| 20260510033033 | 78 | 123 | 1.0 | 6.0 | 0.00 | 0.00 | 0.00 | 60 | 1008.4 |
| 20260510032540 | 78 | 118 | 2.0 | 6.0 | 0.00 | 0.00 | 0.00 | 60 | 1008.5 |
| 20260510032027 | 78 | 123 | 2.0 | 5.0 | 0.00 | 0.00 | 0.00 | 59 | 1008.6 |
| 20260510031533 | 78 | 122 | 0.0 | 4.0 | 0.00 | 0.00 | 0.00 | 59 | 1008.7 |
| 20260510031041 | 78 | 122 | 0.0 | 4.0 | 0.00 | 0.00 | 0.00 | 59 | 1008.8 |
| 20260510030526 | 79 | 118 | 1.0 | 6.0 | 0.00 | 0.00 | 0.00 | 59 | 1008.6 |
| 20260510030033 | 79 | 112 | 1.0 | 6.0 | 0.00 | 0.00 | 0.00 | 58 | 1008.5 |
| 20260510025537 | 79 | 120 | 1.0 | 6.0 | 0.00 | 0.00 | 0.00 | 59 | 1008.5 |
| 20260510025028 | 79 | 117 | 2.0 | 5.0 | 0.00 | 0.00 | 0.00 | 59 | 1008.5 |
| 20260510024554 | 79 | 117 | 2.0 | 5.0 | 0.00 | 0.00 | 0.00 | 59 | 1008.4 |
| 20260510024041 | 79 | 114 | 0.0 | 6.0 | 0.00 | 0.00 | 0.00 | 60 | 1008.5 |
| 20260510023526 | 79 | 112 | 1.0 | 6.0 | 0.00 | 0.00 | 0.00 | 61 | 1008.4 |
| 20260510023029 | 79 | 115 | 1.0 | 4.0 | 0.00 | 0.00 | 0.00 | 62 | 1008.4 |
| 20260510022554 | 79 | 112 | 1.0 | 4.0 | 0.00 | 0.00 | 0.00 | 62 | 1008.3 |
| 20260510022022 | 79 | 114 | 0.0 | 5.0 | 0.00 | 0.00 | 0.00 | 62 | 1008.1 |
| 20260510021527 | 80 | 113 | 0.0 | 5.0 | 0.00 | 0.00 | 0.00 | 62 | 1008.1 |
| 20260510021036 | 80 | 115 | 0.0 | 4.0 | 0.00 | 0.00 | 0.00 | 62 | 1008.1 |
| 20260510020524 | 80 | 114 | 0.0 | 5.0 | 0.00 | 0.00 | 0.00 | 62 | 1008.1 |
| 20260510015525 | 81 | 110 | 2.0 | 5.0 | 0.00 | 0.00 | 0.00 | 61 | 1007.8 |
| 20260510015040 | 81 | 109 | 0.0 | 5.0 | 0.00 | 0.00 | 0.00 | 61 | 1007.9 |
| 20260510014542 | 82 | 107 | 0.0 | 5.0 | 0.00 | 0.00 | 0.00 | 60 | 1007.8 |
| 20260510014029 | 82 | 105 | 0.0 | 6.0 | 0.00 | 0.00 | 0.00 | 58 | 1007.9 |
| 20260510013558 | 82 | 102 | 3.0 | 11.0 | 0.00 | 0.00 | 0.00 | 57 | 1007.7 |
| 20260510013037 | 83 | 102 | 2.0 | 11.0 | 0.00 | 0.00 | 0.00 | 56 | 1007.6 |
| 20260510012525 | 83 | 77 | 0.0 | 10.0 | 0.00 | 0.00 | 0.00 | 55 | 1007.6 |
| 20260510012030 | 83 | 87 | 5.0 | 10.0 | 0.00 | 0.00 | 0.00 | 54 | 1007.6 |
| 20260510011601 | 83 | 71 | 2.0 | 9.0 | 0.00 | 0.00 | 0.00 | 52 | 1007.4 |
| 20260510011043 | 83 | 104 | 0.0 | 0.0 | 0.00 | 0.00 | 0.00 | 51 | 1007.3 |
| 20260510010524 | 84 | 114 | 0.0 | 0.0 | 0.00 | 0.00 | 0.00 | 50 | 1007.3 |
| 20260510010030 | 84 | 111 | 0.0 | 4.0 | 0.00 | 0.00 | 0.00 | 50 | 1007.3 |
| 20260510005534 | 84 | 111 | 2.0 | 4.0 | 0.00 | 0.00 | 0.00 | 50 | 1007.3 |
| 20260510005022 | 85 | 116 | 0.0 | 1.0 | 0.00 | 0.00 | 0.00 | 50 | 1007.2 |
| 20260510004558 | 85 | 110 | 0.0 | 3.0 | 0.00 | 0.00 | 0.00 | 49 | 1007.2 |
| 20260510004044 | 86 | 105 | 0.0 | 4.0 | 0.00 | 0.00 | 0.00 | 48 | 1007.2 |
| 20260510003532 | 86 | 111 | 1.0 | 5.0 | 0.00 | 0.00 | 0.00 | 48 | 1007.2 |
| 20260510003059 | 86 | 111 | 2.0 | 6.0 | 0.00 | 0.00 | 0.00 | 47 | 1007.1 |
| 20260510002542 | 86 | 108 | 0.0 | 6.0 | 0.00 | 0.00 | 0.00 | 47 | 1007.1 |
| 20260510002032 | 86 | 104 | 5.0 | 7.0 | 0.00 | 0.00 | 0.00 | 46 | 1007.2 |
| 20260510001537 | 87 | 112 | 1.0 | 9.0 | 0.00 | 0.00 | 0.00 | 45 | 1007.2 |
| 20260510001024 | 87 | 100 | 3.0 | 9.0 | 0.00 | 0.00 | 0.00 | 45 | 1007.3 |
| 20260510000533 | 87 | 105 | 6.0 | 8.0 | 0.00 | 0.00 | 0.00 | 43 | 1007.2 |
| 20260510000032 | 87 | 94 | 2.0 | 8.0 | 0.00 | 0.00 | 0.00 | 43 | 1007.2 |
| 20260509235520 | 88 | 102 | 1.0 | 8.0 | 0.00 | 0.00 | 0.00 | 42 | 1007.2 |
| 20260509235055 | 88 | 122 | 3.0 | 7.0 | 0.00 | 0.00 | 0.00 | 44 | 1007.4 |
| 20260509234520 | 88 | 108 | 3.0 | 6.0 | 0.00 | 0.00 | 0.00 | 43 | 1007.3 |
| 20260509234031 | 88 | 108 | 0.0 | 6.0 | 0.00 | 0.00 | 0.00 | 43 | 1007.4 |
| 20260509233521 | 89 | 104 | 3.0 | 6.0 | 0.00 | 0.00 | 0.00 | 43 | 1007.4 |
| 20260509233032 | 89 | 99 | 4.0 | 6.0 | 0.00 | 0.00 | 0.00 | 43 | 1007.5 |
| 20260509232540 | 89 | 74 | 0.0 | 6.0 | 0.00 | 0.00 | 0.00 | 42 | 1007.5 |
| 20260509232023 | 89 | 53 | 3.0 | 8.0 | 0.00 | 0.00 | 0.00 | 43 | 1007.5 |
| 20260509231531 | 89 | 47 | 1.0 | 8.0 | 0.00 | 0.00 | 0.00 | 42 | 1007.6 |
| 20260509231042 | 89 | 81 | 3.0 | 11.0 | 0.00 | 0.00 | 0.00 | 43 | 1007.5 |
| 20260509230549 | 89 | 67 | 5.0 | 11.0 | 0.00 | 0.00 | 0.00 | 43 | 1007.6 |
| 20260509230037 | 89 | 111 | 3.0 | 8.0 | 0.00 | 0.00 | 0.00 | 44 | 1007.6 |
| 20260509225537 | 89 | 70 | 4.0 | 10.0 | 0.00 | 0.00 | 0.00 | 44 | 1007.6 |
| 20260509225023 | 88 | 93 | 3.0 | 7.0 | 0.00 | 0.00 | 0.00 | 45 | 1007.5 |
| 20260509224552 | 89 | 89 | 5.0 | 9.0 | 0.00 | 0.00 | 0.00 | 46 | 1007.5 |
| 20260509224034 | 89 | 97 | 2.0 | 9.0 | 0.00 | 0.00 | 0.00 | 45 | 1007.5 |
| 20260509223540 | 89 | 63 | 3.0 | 9.0 | 0.00 | 0.00 | 0.00 | 46 | 1007.5 |
| 20260509223027 | 89 | 56 | 4.0 | 10.0 | 0.00 | 0.00 | 0.00 | 46 | 1007.5 |
| 20260509222536 | 88 | 96 | 5.0 | 10.0 | 0.00 | 0.00 | 0.00 | 47 | 1007.6 |
| 20260509222027 | 88 | 110 | 5.0 | 10.0 | 0.00 | 0.00 | 0.00 | 47 | 1007.6 |
| 20260509221537 | 88 | 105 | 0.0 | 6.0 | 0.00 | 0.00 | 0.00 | 47 | 1007.5 |
| 20260509221025 | 88 | 108 | 0.0 | 6.0 | 0.00 | 0.00 | 0.00 | 47 | 1007.6 |
| 20260509220533 | 88 | 77 | 1.0 | 7.0 | 0.00 | 0.00 | 0.00 | 47 | 1007.6 |
| 20260509220024 | 88 | 96 | 1.0 | 7.0 | 0.00 | 0.00 | 0.00 | 47 | 1007.6 |
| 20260509215531 | 89 | 84 | 0.0 | 7.0 | 0.00 | 0.00 | 0.00 | 48 | 1007.7 |
| 20260509215022 | 88 | 87 | 1.0 | 7.0 | 0.00 | 0.00 | 0.00 | 48 | 1007.7 |
| 20260509214550 | 89 | 111 | 1.0 | 8.0 | 0.00 | 0.00 | 0.00 | 48 | 1007.7 |
| 20260509214103 | 89 | 73 | 4.0 | 10.0 | 0.00 | 0.00 | 0.00 | 47 | 1007.7 |
| 20260509213526 | 88 | 94 | 5.0 | 10.0 | 0.00 | 0.00 | 0.00 | 48 | 1007.7 |
| 20260509213038 | 88 | 95 | 0.0 | 11.0 | 0.00 | 0.00 | 0.00 | 48 | 1007.8 |
| 20260509212543 | 88 | 109 | 7.0 | 11.0 | 0.00 | 0.00 | 0.00 | 48 | 1007.7 |
| 20260509212029 | 89 | 97 | 6.0 | 9.0 | 0.00 | 0.00 | 0.00 | 47 | 1007.8 |
| 20260509211520 | 89 | 19 | 2.0 | 10.0 | 0.00 | 0.00 | 0.00 | 47 | 1007.9 |
| 20260509211051 | 89 | 99 | 1.0 | 10.0 | 0.00 | 0.00 | 0.00 | 48 | 1008.0 |
| 20260509210536 | 89 | 97 | 0.0 | 2.0 | 0.00 | 0.00 | 0.00 | 50 | 1008.2 |
| 20260509210023 | 88 | 67 | 0.0 | 3.0 | 0.00 | 0.00 | 0.00 | 51 | 1008.3 |
| 20260509205527 | 88 | 91 | 0.0 | 13.0 | 0.00 | 0.00 | 0.00 | 51 | 1008.2 |
| 20260509205031 | 88 | 92 | 0.0 | 13.0 | 0.00 | 0.00 | 0.00 | 51 | 1008.3 |
| 20260509204522 | 88 | 77 | 3.0 | 7.0 | 0.00 | 0.00 | 0.00 | 51 | 1008.3 |
| 20260509204031 | 88 | 100 | 1.0 | 12.0 | 0.00 | 0.00 | 0.00 | 52 | 1008.4 |
| 20260509203540 | 88 | 121 | 0.0 | 12.0 | 0.00 | 0.00 | 0.00 | 52 | 1008.4 |
| 20260509203025 | 88 | 45 | 5.0 | 7.0 | 0.00 | 0.00 | 0.00 | 53 | 1008.5 |
| 20260509202553 | 88 | 114 | 0.0 | 9.0 | 0.00 | 0.00 | 0.00 | 52 | 1008.6 |
| 20260509202104 | 89 | 126 | 1.0 | 9.0 | 0.00 | 0.00 | 0.00 | 52 | 1008.6 |
| 20260509201544 | 89 | 55 | 0.0 | 2.0 | 0.00 | 0.00 | 0.00 | 51 | 1008.7 |
| 20260509201027 | 88 | 99 | 0.0 | 0.0 | 0.00 | 0.00 | 0.00 | 46 | 1008.7 |
| 20260509200536 | 88 | 74 | 0.0 | 0.0 | 0.00 | 0.00 | 0.00 | 49 | 1008.7 |
| 20260509200044 | 88 | 64 | 0.0 | 0.0 | 0.00 | 0.00 | 0.00 | 51 | 1008.9 |
| 20260509195531 | 88 | 51 | 0.0 | 0.0 | 0.00 | 0.00 | 0.00 | 48 | 1008.9 |
| 20260509195043 | 89 | 60 | 0.0 | 5.0 | 0.00 | 0.00 | 0.00 | 49 | 1009.0 |
| 20260509194525 | 88 | 303 | 1.0 | 5.0 | 0.00 | 0.00 | 0.00 | 49 | 1009.0 |
| 20260509194033 | 88 | 349 | 0.0 | 6.0 | 0.00 | 0.00 | 0.00 | 48 | 1009.1 |
| 20260509193535 | 88 | 353 | 1.0 | 10.0 | 0.00 | 0.00 | 0.00 | 46 | 1009.1 |
| 20260509193040 | 88 | 41 | 1.0 | 10.0 | 0.00 | 0.00 | 0.00 | 49 | 1009.2 |
| 20260509192528 | 87 | 299 | 0.0 | 5.0 | 0.00 | 0.00 | 0.00 | 49 | 1009.2 |
| 20260509192031 | 87 | 92 | 1.0 | 5.0 | 0.00 | 0.00 | 0.00 | 49 | 1009.2 |
| 20260509191602 | 87 | 47 | 1.0 | 10.0 | 0.00 | 0.00 | 0.00 | 48 | 1009.2 |
| 20260509191041 | 87 | 56 | 3.0 | 10.0 | 0.00 | 0.00 | 0.00 | 49 | 1009.3 |
| 20260509190523 | 87 | 50 | 2.0 | 9.0 | 0.00 | 0.00 | 0.00 | 51 | 1009.4 |
| 20260509190035 | 87 | 72 | 2.0 | 4.0 | 0.00 | 0.00 | 0.00 | 51 | 1009.4 |
| 20260509185526 | 87 | 335 | 1.0 | 5.0 | 0.00 | 0.00 | 0.00 | 51 | 1009.4 |
| 20260509185034 | 87 | 345 | 0.0 | 6.0 | 0.00 | 0.00 | 0.00 | 50 | 1009.5 |
| 20260509184525 | 86 | 16 | 1.0 | 4.0 | 0.00 | 0.00 | 0.00 | 52 | 1009.6 |
| 20260509184031 | 85 | 353 | 0.0 | 3.0 | 0.00 | 0.00 | 0.00 | 50 | 1009.6 |
| 20260509183538 | 85 | 353 | 0.0 | 6.0 | 0.00 | 0.00 | 0.00 | 51 | 1009.7 |
| 20260509183024 | 86 | 9 | 1.0 | 6.0 | 0.00 | 0.00 | 0.00 | 50 | 1009.7 |
| 20260509182533 | 86 | 312 | 1.0 | 5.0 | 0.00 | 0.00 | 0.00 | 53 | 1009.7 |
| 20260509182020 | 85 | 328 | 0.0 | 4.0 | 0.00 | 0.00 | 0.00 | 51 | 1009.7 |
| 20260509181528 | 86 | 355 | 0.0 | 7.0 | 0.00 | 0.00 | 0.00 | 49 | 1009.8 |
| 20260509181031 | 85 | 53 | 4.0 | 7.0 | 0.00 | 0.00 | 0.00 | 51 | 1009.9 |
| 20260509180520 | 85 | 7 | 0.0 | 7.0 | 0.00 | 0.00 | 0.00 | 50 | 1009.8 |